Regional Weather Roundup
Issued by NWS

Home | Current Version | Previous Version | Graphics & Text | Print | Product List | Glossary On
Versions: 1 2 3 4 5 6 7 8 9 10 11 12 13 14 15 16 17 18 19 20 21 22 23 24 25 26 27 28 29 30 31 32 33 34 35 36 37 38 39 40 41 42 43 44 45 46 47 48 49 50
000
ASUS43 KMKX 241600
RWRWI

WISCONSIN REGIONAL WEATHER ROUNDUP
NATIONAL WEATHER SERVICE MILWAUKEE/SULLIVAN WI
1100 AM CDT TUE APR 24 2018

NOTE: "FAIR" INDICATES FEW OR NO CLOUDS BELOW 12,000 FEET WITH NO
SIGNIFICANT WEATHER AND/OR OBSTRUCTIONS TO VISIBILITY.

WIZ001-002-006>008-014>016-023>028-241700-
NORTHWEST WISCONSIN

CITY           SKY/WX    TMP DP  RH WIND       PRES   REMARKS
SUPERIOR ARPT  PTSUNNY   46  31  55 NE8       30.24R
ASHLAND        FAIR      48  31  51 NE14      30.21S
HAYWARD        PTSUNNY   54  31  41 NE12      30.18R
SIREN          PTSUNNY   56  28  35 N10       30.19R
CUMBERLAND     PTSUNNY   52  32  46 N10       30.16R
RICE LAKE      FAIR      58  35  41 N12       30.15S
CHETEK         FAIR      57  36  45 NW6       30.12F
LADYSMITH      FAIR      60  35  38 N9        30.14S
EAU CLAIRE     NOT AVBL
MENOMONIE      FAIR      64  37  36 CALM      30.11F
NEW RICHMOND   CLOUDY    56  37  48 NE10      30.15R
OSCEOLA        PTSUNNY   59  34  39 N14       30.19R
$$

WIZ003>005-009-010-017-018-241700-
NORTH CENTRAL WISCONSIN

CITY           SKY/WX    TMP DP  RH WIND       PRES   REMARKS
MANITOWISH WTR FAIR      51  31  46 NE7       30.13F
ARBOR VITAE    FAIR      52  32  46 N9        30.13S
WOODRUFF       FAIR      52  32  46 N9        30.13S
RHINELANDER    FAIR      59  32  36 NW6       30.10F
EAGLE RIVER    FAIR      55  29  37 N8        30.11S
LAND O LAKES   FAIR      51  31  45 N9G17     30.14F
PHILLIPS       FAIR      57  34  41 NE9       30.11F
TOMAHAWK       FAIR      59  31  35 NW5       30.11F
MEDFORD        FAIR      60  35  39 CALM      30.10S
MERRILL        FAIR      61  34  36 CALM      30.10F
$$

WIZ029-030-035-036-043>047-241700-
CENTRAL WISCONSIN

CITY           SKY/WX    TMP DP  RH WIND       PRES   REMARKS
WAUSAU         FAIR      64  32  30 N6        30.07F
MOSINEE        MOSUNNY   63  30  29 N7        30.10F
MARSHFIELD     FAIR      65  34  31 VRB6      30.08F
STEVENS POINT  FAIR      62  31  31 NE6       30.09F
WAUPACA        FAIR      64  30  27 N6        30.09S
WAUTOMA        FAIR      65  30  27 CALM      30.07F
WISC RAPIDS    FAIR      66  30  26 N3        30.09F
CAMP DOUGLAS   NOT AVBL
$$

WIZ011>013-019>022-031-037>040-048>050-241700-
NORTHEAST WISCONSIN

CITY           SKY/WX    TMP DP  RH WIND       PRES   REMARKS
ANTIGO         CLOUDY    58  35  41 N5        30.10S
SHAWANO        FAIR      62  33  33 E5        30.09S
OCONTO         FAIR      59  34  38 CALM      30.08F
STURGEON BAY   FAIR      59  30  33 VRB3      30.09F
GREEN BAY      FAIR      59  31  34 NE7       30.08F
MANITOWOC      CLOUDY    55  42  61 E8        30.09S
APPLETON       MOSUNNY   61  23  23 N6        30.07S
CLINTONVILLE   FAIR      60  29  31 NE3       30.09S
OSHKOSH        FAIR      61  32  33 NE6       30.07F
$$

WIZ032>034-041-042-053>061-241700-
SOUTHWEST WISCONSIN

CITY           SKY/WX    TMP DP  RH WIND       PRES   REMARKS
LA CROSSE      FAIR      62  35  36 NW6       30.10S
SPARTA         FAIR      64  31  28 W3        30.10F
VIROQUA        FAIR      64  34  33 NE6       30.10S
BOSCOBEL       FAIR      67  32  27 VRB6      30.09F
PRAIRIE DU CHI FAIR      60  36  40 CALM      30.10S
PLATTEVILLE    FAIR      64  32  29 N13       30.08F
$$

WIZ056-057-062-063-064-067-068-241700-
SOUTH CENTRAL WISCONSIN

CITY           SKY/WX    TMP DP  RH WIND       PRES   REMARKS
REEDSBURG      FAIR      64  31  29 N9        30.08F
BARABOO/DELLS  FAIR      62  28  28 N7        30.09F
LONE ROCK      NOT AVBL
MINERAL POINT  FAIR      64  27  24 N7        30.08F
MADISON        PTSUNNY   63  30  28 N12       30.07F
MIDDLETON      FAIR      62  29  28 N10       30.08F
WATERTOWN      FAIR      59  32  35 NE8       30.06F
MONROE         FAIR      63  30  29 N12       30.06F
JANESVILLE     SUNNY     64  25  22 N9        30.06S
$$

WIZ051-052-058>065-066-070>072-241700-
SOUTHEAST WISCONSIN

CITY           SKY/WX    TMP DP  RH WIND       PRES   REMARKS
MILWAUKEE      PTSUNNY   54  35  48 NE8       30.08F
WAUKESHA       SUNNY     59  28  31 NE10      30.07F
MILWAUKEE/TIMM SUNNY     57  28  33 N6        30.08F
RACINE         CLOUDY    52  34  50 N8        30.09S
BURLINGTON     FAIR      59  33  38 N3        30.06F
KENOSHA        PTSUNNY   59  44  57 N6        30.06F
FOND DU LAC    FAIR      59  34  39 NE8       30.07F
SHEBOYGAN      FAIR      53  42  66 E12       30.07S
WEST BEND      FAIR      61  28  29 E5        30.06F
JUNEAU         FAIR      60  31  33 N8        30.08F
$$

LSZ147-162-241700-
LAKE SUPERIOR

STATION/POSITION TIME  TEMP    WIND        PRES    WAVE
                       AIR SEA DIR/SP/G            HT/PER
                 (UTC) (F)     (DEG/KT/KT) (MB)    (FT/S)
DEVILS ISLAND    1500   44      30/ 13/ 13 1024.1F
SAXON HARBOR     1540   37     340/  5/  6 1023.0R
$$

LMZ867-665-643>646-241700-
LAKE MICHIGAN

STATION/POSITION TIME  TEMP    WIND        PRES    WAVE
                       AIR SEA DIR/SP/G            HT/PER
                 (UTC) (F)     (DEG/KT/KT) (MB)    (FT/S)
NORTHPORT PIER   1540   40                 1019.0F
KEWAUNEE LAKESHO 1524   46      40/  3/  7 1018.3
SHEBOYGAN LAKESH 1500   39      10/  8/  9 1019.1F
PORT WASHINGTON  1540   43      80/  2/  4 1019.6S
MILWAUKEE LAKESH 1530   42      50/  9/ 10   N/A
KENOSHA   LAKESH 1500   42                 1018.6
$$

TC  - TEMPERATURE IN CELSIUS
VSB - VISIBILITY IN STATUTE MILES
WCI - WIND CHILL INDEX
HX  - HEAT INDEX




USA.gov is the U.S. government's official web portal to all federal, state and local government web resources and services.